Date,TemperatureHighF,TemperatureAvgF,TemperatureLowF,DewpointHighF,DewpointAvgF,DewpointLowF,HumidityHigh,HumidityAvg,HumidityLow,PressureMaxIn,PressureMinIn,WindSpeedMaxMPH,WindSpeedAvgMPH,GustSpeedMaxMPH,PrecipitationSumIn
2013-3-1,33,30,26,26,21,18,82,71,58,30.27,30.15,19,6,19,0.04
2013-3-2,39,29,21,23,19,13,96,69,42,30.36,30.21,16,4,16,0.00
2013-3-3,57,42,24,28,23,16,82,48,30,30.21,29.82,18,6,18,0.04
2013-3-4,67,55,44,44,35,26,76,47,36,29.91,29.68,27,7,27,0.04
2013-3-5,45,38,30,37,23,14,98,58,36,30.36,29.91,37,11,37,0.08
2013-3-6,49,36,23,22,17,12,68,48,32,30.41,30.24,13,4,13,0.04
2013-3-7,62,49,36,26,23,19,50,37,26,30.27,30.15,17,6,17,0.04
2013-3-8,61,53,43,34,29,24,52,41,36,30.27,30.06,19,9,19,0.00
2013-3-9,80,62,52,74,45,30,94,58,38,30.06,29.76,29,10,29,1.29
2013-3-10,76,61,30,70,57,27,96,85,82,30.00,29.71,27,8,27,0.79
2013-3-11,46,34,27,29,24,20,92,71,40,30.09,29.94,22,9,22,0.79
2013-3-12,55,42,27,34,27,16,94,59,30,30.33,30.03,22,4,22,0.79
2013-3-13,54,38,27,22,17,14,66,43,26,30.47,30.33,11,1,11,0.00
2013-3-14,72,53,33,40,26,15,52,35,26,30.39,30.15,24,5,24,0.00
2013-3-15,79,65,50,44,40,35,70,42,24,30.15,29.88,27,6,27,0.00
2013-3-16,76,63,52,45,39,34,52,41,32,29.91,29.82,19,5,19,0.00
2013-3-17,66,55,42,61,48,32,96,79,50,29.91,29.74,23,7,23,0.24
2013-3-18,64,52,34,60,41,23,94,67,34,30.09,29.74,18,5,18,0.00
2013-3-19,58,44,30,28,20,13,86,41,20,30.30,30.03,17,5,17,0.00
2013-3-20,49,38,28,29,19,11,86,47,28,30.39,30.12,19,4,19,0.00
2013-3-21,36,35,34,34,19,13,96,55,42,30.12,29.85,17,7,17,0.17
2013-3-22,54,43,34,50,41,33,98,93,86,29.97,29.82,18,6,18,0.54
2013-3-23,46,41,38,44,40,38,98,96,92,29.94,29.74,15,6,15,0.00
2013-3-24,58,38,25,54,32,17,100,82,62,30.18,29.68,32,12,32,0.04
2013-3-25,34,28,24,21,18,15,80,67,52,30.36,30.09,26,10,26,0.00
2013-3-26,47,32,19,26,20,16,98,65,38,30.44,30.33,15,2,15,0.00
2013-3-27,60,45,26,26,22,18,80,44,26,30.33,30.15,18,6,18,0.00
2013-3-28,69,57,47,44,34,24,62,41,38,30.24,30.15,16,5,16,0.00
2013-3-29,71,62,54,66,56,44,96,82,60,30.24,28.97,15,4,15,0.17
2013-3-30,71,59,54,66,57,53,98,93,76,30.15,29.94,19,4,19,0.16
2013-3-31,69,60,46,64,50,38,96,71,36,30.06,29.91,24,4,24,0.04